Soldotna, AK

7:23 AM AKST on December 12, 2019 (GMT -0900)
Soldotna

Weather History for PASX - October, 2019

Change the Weather History Date:

Sunday, October 6, 2019

  Actual Average Record
Temperature  
Mean Temperature 38 °F -  
Max Temperature 50 °F 47 °F 57 °F (1993)
Min Temperature 25 °F 33 °F 13 °F (1958)
Degree Days  
Heating Degree Days 28    
Moisture  
Dew Point 25 °F    
Average Humidity 68    
Maximum Humidity 96    
Minimum Humidity 31    
Precipitation  
Precipitation 0.00 in - - ()
Sea Level Pressure  
Sea Level Pressure 29.94 in    
Wind  
Wind Speed 5 mph (SW)    
Max Wind Speed 12 mph    
Max Gust Speed -    
Visibility 10 miles    
Events      
Averages and records for this station are not official NWS values.
T = Trace of Precipitation, MM = Missing Value Source: NWS Daily Summary

Daily Weather History Graph

Daily Weather History Graph

Search for Another Location

Airport or City:

Astronomy

Oct. 06, 2019 Rise Set
Actual Time 8:22 AM AKDT 7:20 PM AKDT
Civil Twilight 7:40 AM AKDT 8:02 PM AKDT
Nautical Twilight 6:50 AM AKDT 8:51 PM AKDT
Astronomical Twilight 5:59 AM AKDT 9:42 PM AKDT
Moon 6:09 PM AKDT (10/6) No Moon Set
Length of Visible Light 12h 22m
Length of Day
10h 58m
First Quarter, 61% of the Moon is Illuminated
Oct 6
First Quarter
Oct 13
Full
Oct 21
Last Quarter
Oct 27
New
Nov 4
First Quarter

Hourly Weather History & Observations

Time (AKDT) Temp. Windchill Dew Point Humidity Pressure Visibility Wind Dir Wind Speed Gust Speed Precip Events Conditions
12:56 AM 37.0 °F 31.0 °F 32.0 °F 82% 29.82 in 10.0 mi South 8.1 mph - N/A   Clear
1:56 AM 34.0 °F - 30.0 °F 85% 29.82 in 10.0 mi Calm Calm - N/A   Clear
2:56 AM 32.0 °F 28.7 °F 30.0 °F 92% 29.83 in 10.0 mi SE 3.5 mph - N/A   Clear
3:56 AM 28.0 °F - 26.1 °F 92% 29.84 in 10.0 mi Calm Calm - N/A   Clear
4:56 AM 26.1 °F - 24.1 °F 92% 29.84 in 10.0 mi Calm Calm - N/A   Clear
5:56 AM 25.0 °F - 24.1 °F 96% 29.85 in 10.0 mi Calm Calm - N/A   Clear
6:56 AM 27.0 °F - 26.1 °F 96% 29.85 in 10.0 mi Calm Calm - N/A   Clear
7:56 AM 30.0 °F 24.1 °F 28.9 °F 96% 29.86 in 10.0 mi South 5.8 mph - N/A   Clear
8:56 AM 30.9 °F 26.2 °F 28.9 °F 92% 29.86 in 10.0 mi SSE 4.6 mph - N/A   Clear
9:56 AM 36.0 °F 33.3 °F 28.0 °F 73% 29.87 in 10.0 mi Variable 3.5 mph - N/A   Clear
10:56 AM 42.1 °F 40.2 °F 28.0 °F 58% 29.89 in 10.0 mi South 3.5 mph - N/A   Clear
11:56 AM 46.0 °F 41.4 °F 27.0 °F 47% 29.89 in 10.0 mi West 9.2 mph - N/A   Clear
12:56 PM 46.9 °F - 23.0 °F 39% 29.91 in 10.0 mi West 10.4 mph - N/A   Clear
1:56 PM 48.0 °F - 23.0 °F 37% 29.92 in 10.0 mi WSW 11.5 mph - N/A   Clear
2:56 PM 48.9 °F - 24.1 °F 38% 29.94 in 10.0 mi West 10.4 mph - N/A   Clear
3:56 PM 48.9 °F - 24.1 °F 38% 29.96 in 10.0 mi West 11.5 mph - N/A   Clear
4:56 PM 50.0 °F - 23.0 °F 35% 29.97 in 10.0 mi WNW 8.1 mph - N/A   Clear
5:56 PM 50.0 °F - 19.9 °F 31% 30.00 in 10.0 mi NNW 5.8 mph - N/A   Clear
6:56 PM 44.1 °F - 23.0 °F 43% 30.02 in 10.0 mi Calm Calm - N/A   Clear
7:56 PM 37.0 °F - 23.0 °F 57% 30.06 in 10.0 mi Calm Calm - N/A   Clear
8:56 PM 33.1 °F 28.7 °F 24.1 °F 70% 30.09 in 10.0 mi ENE 4.6 mph - N/A   Clear
9:56 PM 28.9 °F 25.2 °F 23.0 °F 78% 30.12 in 10.0 mi NE 3.5 mph - N/A   Clear
10:56 PM 32.0 °F 28.7 °F 25.0 °F 75% 30.15 in 10.0 mi ENE 3.5 mph - N/A   Clear
11:56 PM 28.0 °F 22.8 °F 23.0 °F 81% 30.18 in 10.0 mi East 4.6 mph - N/A   Clear